Time,TemperatureF,DewpointF,PressureIn,WindDirection,WindDirectionDegrees,WindSpeedMPH,WindSpeedGustMPH,Humidity,HourlyPrecipIn,Conditions,Clouds,dailyrainin,SoftwareType,DateUTC
2013-03-10 00:00:00,29.6,23.0,30.36,WNW,301,0.0,5.0,76,0.00,,,0.42,Wunderground v.1.15,2013-03-10 05:00:00,
2013-03-10 00:05:00,29.3,23.0,30.36,WNW,301,0.0,5.0,77,0.00,,,0.00,Wunderground v.1.15,2013-03-10 05:05:00,
2013-03-10 00:10:00,29.0,23.0,30.36,WNW,301,0.0,5.0,78,0.00,,,0.00,Wunderground v.1.15,2013-03-10 05:10:00,
2013-03-10 00:15:00,28.8,22.8,30.36,WNW,301,0.0,5.0,78,0.00,,,0.00,Wunderground v.1.15,2013-03-10 05:15:00,
2013-03-10 00:20:00,28.5,22.5,30.36,WNW,301,0.0,5.0,78,0.00,,,0.00,Wunderground v.1.15,2013-03-10 05:20:00,
2013-03-10 00:25:00,28.3,22.6,30.36,WNW,301,0.0,5.0,79,0.00,,,0.00,Wunderground v.1.15,2013-03-10 05:25:00,
2013-03-10 00:30:00,28.1,22.4,30.36,WNW,301,0.0,5.0,79,0.00,,,0.00,Wunderground v.1.15,2013-03-10 05:30:00,
2013-03-10 00:35:00,27.9,22.5,30.37,WNW,301,0.0,5.0,80,0.00,,,0.00,Wunderground v.1.15,2013-03-10 05:35:00,
2013-03-10 00:40:00,27.8,22.7,30.36,WNW,301,0.0,5.0,81,0.00,,,0.00,Wunderground v.1.15,2013-03-10 05:40:00,
2013-03-10 00:45:00,27.7,22.6,30.37,WNW,301,0.0,5.0,81,0.00,,,0.00,Wunderground v.1.15,2013-03-10 05:45:00,
2013-03-10 00:55:00,27.5,22.4,30.37,WNW,301,0.0,5.0,81,0.00,,,0.00,Wunderground v.1.15,2013-03-10 05:55:00,
2013-03-10 01:00:00,27.4,22.3,30.37,WNW,301,0.0,5.0,81,0.00,,,0.00,Wunderground v.1.15,2013-03-10 06:00:00,
2013-03-10 01:05:00,27.4,22.3,30.37,WNW,301,0.0,5.0,81,0.00,,,0.00,Wunderground v.1.15,2013-03-10 06:05:00,
2013-03-10 01:10:00,27.2,22.4,30.37,WNW,301,0.0,5.0,82,0.00,,,0.00,Wunderground v.1.15,2013-03-10 06:10:00,
2013-03-10 01:15:00,27.1,22.3,30.37,WNW,301,0.0,5.0,82,0.00,,,0.00,Wunderground v.1.15,2013-03-10 06:15:00,
2013-03-10 01:20:00,27.1,22.3,30.37,WNW,301,0.0,5.0,82,0.00,,,0.00,Wunderground v.1.15,2013-03-10 06:20:00,
2013-03-10 01:30:00,27.2,22.4,30.36,WNW,301,0.0,5.0,82,0.00,,,0.00,Wunderground v.1.15,2013-03-10 06:30:00,
2013-03-10 01:35:00,27.1,22.3,30.36,WNW,301,0.0,5.0,82,0.00,,,0.00,Wunderground v.1.15,2013-03-10 06:35:00,
2013-03-10 01:40:00,26.9,22.1,30.36,WNW,301,0.0,5.0,82,0.00,,,0.00,Wunderground v.1.15,2013-03-10 06:40:00,
2013-03-10 01:45:00,26.7,21.9,30.36,WNW,301,0.0,5.0,82,0.00,,,0.00,Wunderground v.1.15,2013-03-10 06:45:00,
2013-03-10 01:50:00,26.6,21.8,30.36,WNW,301,0.0,5.0,82,0.00,,,0.00,Wunderground v.1.15,2013-03-10 06:50:00,
2013-03-10 01:55:00,26.5,22.0,30.35,WNW,301,0.0,5.0,83,0.00,,,0.00,Wunderground v.1.15,2013-03-10 06:55:00,
2013-03-10 03:05:00,26.2,21.7,30.35,WNW,301,0.0,5.0,83,0.00,,,0.00,Wunderground v.1.15,2013-03-10 07:05:00,
2013-03-10 03:10:00,26.1,21.9,30.35,WNW,301,0.0,5.0,84,0.00,,,0.00,Wunderground v.1.15,2013-03-10 07:10:00,
2013-03-10 03:15:00,26.0,21.8,30.35,WNW,301,0.0,5.0,84,0.00,,,0.00,Wunderground v.1.15,2013-03-10 07:15:00,
2013-03-10 03:20:00,26.0,22.1,30.35,WNW,301,0.0,5.0,85,0.00,,,0.00,Wunderground v.1.15,2013-03-10 07:20:00,
2013-03-10 03:25:00,26.0,21.8,30.35,WNW,301,0.0,5.0,84,0.00,,,0.00,Wunderground v.1.15,2013-03-10 07:25:00,
2013-03-10 03:30:00,26.0,21.8,30.35,WNW,301,0.0,5.0,84,0.00,,,0.00,Wunderground v.1.15,2013-03-10 07:30:00,
2013-03-10 03:35:00,25.9,21.7,30.35,WNW,301,0.0,5.0,84,0.00,,,0.00,Wunderground v.1.15,2013-03-10 07:35:00,
2013-03-10 03:45:00,25.6,21.4,30.35,WNW,301,0.0,5.0,84,0.00,,,0.00,Wunderground v.1.15,2013-03-10 07:45:00,
2013-03-10 03:50:00,25.5,21.6,30.35,WNW,301,0.0,5.0,85,0.00,,,0.00,Wunderground v.1.15,2013-03-10 07:50:00,
2013-03-10 03:55:00,25.4,21.5,30.35,WNW,301,0.0,5.0,85,0.00,,,0.00,Wunderground v.1.15,2013-03-10 07:55:00,
2013-03-10 04:00:00,25.3,21.4,30.35,WNW,301,0.0,5.0,85,0.00,,,0.00,Wunderground v.1.15,2013-03-10 08:00:00,
2013-03-10 04:05:00,25.2,21.3,30.35,WNW,301,0.0,5.0,85,0.00,,,0.00,Wunderground v.1.15,2013-03-10 08:05:00,
2013-03-10 04:10:00,25.1,21.2,30.35,WNW,301,0.0,5.0,85,0.00,,,0.00,Wunderground v.1.15,2013-03-10 08:10:00,
2013-03-10 04:15:00,25.0,21.1,30.35,WNW,301,0.0,5.0,85,0.00,,,0.00,Wunderground v.1.15,2013-03-10 08:15:00,
2013-03-10 04:25:00,25.0,21.4,30.35,WNW,301,0.0,5.0,86,0.00,,,0.00,Wunderground v.1.15,2013-03-10 08:25:00,
2013-03-10 04:30:00,25.1,21.5,30.35,WNW,301,0.0,5.0,86,0.00,,,0.00,Wunderground v.1.15,2013-03-10 08:30:00,
2013-03-10 04:35:00,25.2,21.3,30.35,WNW,301,0.0,5.0,85,0.00,,,0.00,Wunderground v.1.15,2013-03-10 08:35:00,
2013-03-10 04:40:00,25.2,21.3,30.35,WNW,301,0.0,5.0,85,0.00,,,0.00,Wunderground v.1.15,2013-03-10 08:40:00,
2013-03-10 04:45:00,25.2,21.3,30.35,WNW,301,0.0,5.0,85,0.00,,,0.00,Wunderground v.1.15,2013-03-10 08:45:00,
2013-03-10 04:55:00,25.4,21.5,30.35,WNW,301,0.0,5.0,85,0.00,,,0.00,Wunderground v.1.15,2013-03-10 08:55:00,
2013-03-10 05:00:00,25.4,21.5,30.35,WNW,301,0.0,5.0,85,0.00,,,0.00,Wunderground v.1.15,2013-03-10 09:00:00,
2013-03-10 05:05:00,25.5,21.6,30.35,WNW,301,0.0,5.0,85,0.00,,,0.00,Wunderground v.1.15,2013-03-10 09:05:00,
2013-03-10 05:10:00,25.7,21.5,30.35,WNW,301,0.0,5.0,84,0.00,,,0.00,Wunderground v.1.15,2013-03-10 09:10:00,
2013-03-10 05:15:00,25.9,21.4,30.35,WNW,301,0.0,5.0,83,0.00,,,0.00,Wunderground v.1.15,2013-03-10 09:15:00,
2013-03-10 05:20:00,26.0,21.5,30.35,WNW,301,0.0,5.0,83,0.00,,,0.00,Wunderground v.1.15,2013-03-10 09:20:00,
2013-03-10 05:25:00,26.0,21.5,30.36,WNW,301,0.0,5.0,83,0.00,,,0.00,Wunderground v.1.15,2013-03-10 09:25:00,
2013-03-10 05:35:00,25.8,21.3,30.36,WNW,301,0.0,5.0,83,0.00,,,0.00,Wunderground v.1.15,2013-03-10 09:35:00,
2013-03-10 05:40:00,25.8,21.3,30.36,WNW,301,0.0,5.0,83,0.00,,,0.00,Wunderground v.1.15,2013-03-10 09:40:00,
2013-03-10 05:45:00,25.7,21.0,30.36,WNW,301,0.0,5.0,82,0.00,,,0.00,Wunderground v.1.15,2013-03-10 09:45:00,
2013-03-10 05:50:00,25.6,21.2,30.36,WNW,301,0.0,0.0,83,0.00,,,0.00,Wunderground v.1.15,2013-03-10 09:50:00,
2013-03-10 06:00:00,25.0,20.6,30.37,WNW,301,0.0,0.0,83,0.00,,,0.00,Wunderground v.1.15,2013-03-10 10:00:00,
2013-03-10 06:05:00,24.8,20.4,30.36,WNW,301,0.0,0.0,83,0.00,,,0.00,Wunderground v.1.15,2013-03-10 10:05:00,
2013-03-10 06:15:00,24.4,20.3,30.36,WNW,301,0.0,0.0,84,0.00,,,0.00,Wunderground v.1.15,2013-03-10 10:15:00,
2013-03-10 06:20:00,24.2,20.1,30.36,WNW,301,0.0,0.0,84,0.00,,,0.00,Wunderground v.1.15,2013-03-10 10:20:00,
2013-03-10 06:25:00,24.1,20.2,30.36,WNW,301,0.0,0.0,85,0.00,,,0.00,Wunderground v.1.15,2013-03-10 10:25:00,
2013-03-10 06:30:00,24.1,20.2,30.36,WNW,301,0.0,0.0,85,0.00,,,0.00,Wunderground v.1.15,2013-03-10 10:30:00,
2013-03-10 06:35:00,24.0,20.1,30.35,WNW,301,0.0,0.0,85,0.00,,,0.00,Wunderground v.1.15,2013-03-10 10:35:00,
2013-03-10 06:40:00,23.9,20.0,30.36,WNW,301,0.0,0.0,85,0.00,,,0.00,Wunderground v.1.15,2013-03-10 10:40:00,
2013-03-10 06:50:00,23.9,20.3,30.36,WNW,301,0.0,0.0,86,0.00,,,0.00,Wunderground v.1.15,2013-03-10 10:50:00,
2013-03-10 06:55:00,23.9,20.3,30.36,WNW,301,0.0,0.0,86,0.00,,,0.00,Wunderground v.1.15,2013-03-10 10:55:00,
2013-03-10 07:00:00,23.9,20.0,30.37,WNW,301,0.0,0.0,85,0.00,,,0.00,Wunderground v.1.15,2013-03-10 11:00:00,
2013-03-10 07:05:00,23.8,19.9,30.36,WNW,301,0.0,0.0,85,0.00,,,0.00,Wunderground v.1.15,2013-03-10 11:05:00,
2013-03-10 07:10:00,23.6,20.0,30.37,WNW,301,0.0,0.0,86,0.00,,,0.00,Wunderground v.1.15,2013-03-10 11:10:00,
2013-03-10 07:15:00,23.6,20.0,30.37,WNW,301,0.0,0.0,86,0.00,,,0.00,Wunderground v.1.15,2013-03-10 11:15:00,
2013-03-10 07:25:00,23.6,20.0,30.37,WNW,301,0.0,0.0,86,0.00,,,0.00,Wunderground v.1.15,2013-03-10 11:25:00,
2013-03-10 07:30:00,23.5,19.9,30.37,WNW,301,0.0,0.0,86,0.00,,,0.00,Wunderground v.1.15,2013-03-10 11:30:00,
2013-03-10 07:35:00,23.5,19.9,30.37,WNW,301,0.0,0.0,86,0.00,,,0.00,Wunderground v.1.15,2013-03-10 11:35:00,
2013-03-10 07:40:00,23.7,20.4,30.37,WNW,301,0.0,0.0,87,0.00,,,0.00,Wunderground v.1.15,2013-03-10 11:40:00,
2013-03-10 07:45:00,23.9,20.6,30.37,WNW,301,0.0,0.0,87,0.00,,,0.00,Wunderground v.1.15,2013-03-10 11:45:00,
2013-03-10 07:50:00,24.1,20.5,30.37,WNW,301,0.0,0.0,86,0.00,,,0.00,Wunderground v.1.15,2013-03-10 11:50:00,
2013-03-10 08:00:00,24.6,21.0,30.37,WNW,301,0.0,0.0,86,0.00,,,0.00,Wunderground v.1.15,2013-03-10 12:00:00,
2013-03-10 08:05:00,25.1,21.5,30.37,WNW,301,0.0,0.0,86,0.00,,,0.00,Wunderground v.1.15,2013-03-10 12:05:00,
2013-03-10 08:10:00,25.4,21.5,30.37,WNW,301,0.0,0.0,85,0.00,,,0.00,Wunderground v.1.15,2013-03-10 12:10:00,
2013-03-10 08:15:00,25.8,22.2,30.37,WNW,301,0.0,0.0,86,0.00,,,0.00,Wunderground v.1.15,2013-03-10 12:15:00,
2013-03-10 08:20:00,26.5,22.9,30.37,WNW,301,0.0,0.0,86,0.00,,,0.00,Wunderground v.1.15,2013-03-10 12:20:00,
2013-03-10 08:25:00,27.6,23.7,30.37,WNW,301,0.0,0.0,85,0.00,,,0.00,Wunderground v.1.15,2013-03-10 12:25:00,
2013-03-10 08:30:00,28.4,23.9,30.37,SE,128,0.0,1.0,83,0.00,,,0.00,Wunderground v.1.15,2013-03-10 12:30:00,
2013-03-10 08:40:00,30.3,24.6,30.37,SE,132,0.0,0.0,79,0.00,,,0.00,Wunderground v.1.15,2013-03-10 12:40:00,
2013-03-10 08:45:00,31.0,24.6,30.37,SE,132,0.0,0.0,77,0.00,,,0.00,Wunderground v.1.15,2013-03-10 12:45:00,
2013-03-10 08:50:00,31.5,24.8,30.37,SE,132,0.0,0.0,76,0.00,,,0.00,Wunderground v.1.15,2013-03-10 12:50:00,
2013-03-10 08:55:00,32.0,25.0,30.37,SE,132,0.0,0.0,75,0.00,,,0.00,Wunderground v.1.15,2013-03-10 12:55:00,
2013-03-10 09:00:00,32.4,24.7,30.37,SE,146,0.0,0.0,73,0.00,,,0.00,Wunderground v.1.15,2013-03-10 13:00:00,
2013-03-10 09:05:00,32.7,25.0,30.37,SE,146,0.0,0.0,73,0.00,,,0.00,Wunderground v.1.15,2013-03-10 13:05:00,
2013-03-10 09:10:00,33.0,25.0,30.37,SE,146,0.0,0.0,72,0.00,,,0.00,Wunderground v.1.15,2013-03-10 13:10:00,
2013-03-10 09:15:00,33.4,25.3,30.37,SE,146,0.0,0.0,72,0.00,,,0.00,Wunderground v.1.15,2013-03-10 13:15:00,
2013-03-10 09:25:00,34.3,25.9,30.37,South,177,1.0,1.0,71,0.00,,,0.00,Wunderground v.1.15,2013-03-10 13:25:00,
2013-03-10 09:30:00,34.7,25.9,30.37,SE,133,1.0,2.0,70,0.00,,,0.00,Wunderground v.1.15,2013-03-10 13:30:00,
2013-03-10 09:35:00,35.2,26.0,30.36,SE,130,2.0,2.0,69,0.00,,,0.00,Wunderground v.1.15,2013-03-10 13:35:00,
2013-03-10 09:40:00,35.7,26.2,30.37,South,176,2.0,2.0,68,0.00,,,0.00,Wunderground v.1.15,2013-03-10 13:40:00,
2013-03-10 09:50:00,36.8,26.9,30.36,West,263,1.0,1.0,67,0.00,,,0.00,Wunderground v.1.15,2013-03-10 13:50:00,
2013-03-10 10:00:00,38.0,26.5,30.36,SSE,166,2.0,2.0,63,0.00,,,0.00,Wunderground v.1.15,2013-03-10 14:00:00,
2013-03-10 10:05:00,38.6,27.1,30.36,SSE,165,2.0,2.0,63,0.00,,,0.00,Wunderground v.1.15,2013-03-10 14:05:00,
2013-03-10 10:10:00,39.5,26.8,30.36,South,175,1.0,4.0,60,0.00,,,0.00,Wunderground v.1.15,2013-03-10 14:10:00,
2013-03-10 10:15:00,40.0,26.8,30.36,SE,126,2.0,4.0,59,0.00,,,0.00,Wunderground v.1.15,2013-03-10 14:15:00,
2013-03-10 10:20:00,40.3,26.3,30.36,South,175,4.0,6.0,57,0.00,,,0.00,Wunderground v.1.15,2013-03-10 14:20:00,
2013-03-10 10:25:00,40.7,26.6,30.35,SE,132,4.0,6.0,57,0.00,,,0.00,Wunderground v.1.15,2013-03-10 14:25:00,
2013-03-10 10:35:00,41.5,26.1,30.35,SSE,154,4.0,9.0,54,0.00,,,0.00,Wunderground v.1.15,2013-03-10 14:35:00,
2013-03-10 10:40:00,42.2,26.7,30.35,South,172,4.0,6.0,54,0.00,,,0.00,Wunderground v.1.15,2013-03-10 14:40:00,
2013-03-10 10:45:00,42.7,25.8,30.35,South,170,4.0,6.0,51,0.00,,,0.00,Wunderground v.1.15,2013-03-10 14:45:00,
2013-03-10 10:50:00,43.1,27.1,30.35,East,94,3.0,3.0,53,0.00,,,0.00,Wunderground v.1.15,2013-03-10 14:50:00,
2013-03-10 10:55:00,42.7,26.7,30.35,SSE,158,3.0,3.0,53,0.00,,,0.00,Wunderground v.1.15,2013-03-10 14:55:00,
2013-03-10 11:00:00,42.7,26.7,30.35,SSE,168,4.0,4.0,53,0.00,,,0.00,Wunderground v.1.15,2013-03-10 15:00:00,
2013-03-10 11:10:00,42.6,27.1,30.35,NE,56,4.0,4.0,54,0.00,,,0.00,Wunderground v.1.15,2013-03-10 15:10:00,
2013-03-10 11:15:00,43.1,27.1,30.35,SSE,149,3.0,4.0,53,0.00,,,0.00,Wunderground v.1.15,2013-03-10 15:15:00,
2013-03-10 11:20:00,43.7,28.1,30.34,South,177,2.0,4.0,54,0.00,,,0.00,Wunderground v.1.15,2013-03-10 15:20:00,
2013-03-10 11:25:00,44.2,26.7,30.35,SE,126,2.0,4.0,50,0.00,,,0.00,Wunderground v.1.15,2013-03-10 15:25:00,
2013-03-10 11:30:00,44.7,27.7,30.34,SSE,162,2.0,2.0,51,0.00,,,0.00,Wunderground v.1.15,2013-03-10 15:30:00,
2013-03-10 11:35:00,44.7,27.7,30.34,ESE,111,2.0,3.0,51,0.00,,,0.00,Wunderground v.1.15,2013-03-10 15:35:00,
2013-03-10 11:45:00,45.6,27.5,30.34,SSE,156,2.0,3.0,49,0.00,,,0.00,Wunderground v.1.15,2013-03-10 15:45:00,
2013-03-10 11:50:00,45.9,27.8,30.34,SE,145,1.0,4.0,49,0.00,,,0.00,Wunderground v.1.15,2013-03-10 15:50:00,
2013-03-10 11:55:00,46.2,28.1,30.34,SE,126,2.0,4.0,49,0.00,,,0.00,Wunderground v.1.15,2013-03-10 15:55:00,
2013-03-10 12:00:00,46.6,27.9,30.34,South,169,3.0,3.0,48,0.00,,,0.00,Wunderground v.1.15,2013-03-10 16:00:00,
2013-03-10 12:10:00,45.7,28.1,30.34,SE,139,2.0,2.0,50,0.00,,,0.00,Wunderground v.1.15,2013-03-10 16:10:00,
2013-03-10 12:15:00,46.1,28.0,30.34,South,179,2.0,2.0,49,0.00,,,0.00,Wunderground v.1.15,2013-03-10 16:15:00,
2013-03-10 12:20:00,46.1,29.0,30.34,SE,125,1.0,3.0,51,0.00,,,0.00,Wunderground v.1.15,2013-03-10 16:20:00,
2013-03-10 12:25:00,46.8,28.6,30.34,ESE,112,1.0,3.0,49,0.00,,,0.00,Wunderground v.1.15,2013-03-10 16:25:00,
2013-03-10 12:30:00,47.0,27.8,30.33,ESE,115,1.0,2.0,47,0.00,,,0.00,Wunderground v.1.15,2013-03-10 16:30:00,
2013-03-10 12:35:00,47.2,29.0,30.33,SE,140,2.0,2.0,49,0.00,,,0.00,Wunderground v.1.15,2013-03-10 16:35:00,
2013-03-10 12:45:00,45.9,27.8,30.32,SSE,165,4.0,10.0,49,0.00,,,0.00,Wunderground v.1.15,2013-03-10 16:45:00,
2013-03-10 12:50:00,45.8,27.7,30.32,SSE,160,4.0,4.0,49,0.00,,,0.00,Wunderground v.1.15,2013-03-10 16:50:00,
2013-03-10 12:55:00,45.2,28.6,30.33,South,175,3.0,4.0,52,0.00,,,0.00,Wunderground v.1.15,2013-03-10 16:55:00,
2013-03-10 13:00:00,44.9,27.4,30.33,SE,135,4.0,4.0,50,0.00,,,0.00,Wunderground v.1.15,2013-03-10 17:00:00,
2013-03-10 13:05:00,45.0,28.4,30.33,SSE,153,3.0,4.0,52,0.00,,,0.00,Wunderground v.1.15,2013-03-10 17:05:00,
2013-03-10 13:10:00,44.8,28.2,30.33,SSE,167,2.0,2.0,52,0.00,,,0.00,Wunderground v.1.15,2013-03-10 17:10:00,
2013-03-10 13:15:00,45.0,28.4,30.33,ESE,112,2.0,3.0,52,0.00,,,0.00,Wunderground v.1.15,2013-03-10 17:15:00,
2013-03-10 13:20:00,45.3,29.2,30.33,ESE,110,2.0,4.0,53,0.00,,,0.00,Wunderground v.1.15,2013-03-10 17:20:00,
2013-03-10 13:30:00,46.7,29.0,30.32,ESE,118,2.0,2.0,50,0.00,,,0.00,Wunderground v.1.15,2013-03-10 17:30:00,
2013-03-10 13:35:00,47.6,29.4,30.32,SSE,148,1.0,2.0,49,0.00,,,0.00,Wunderground v.1.15,2013-03-10 17:35:00,
2013-03-10 13:40:00,48.2,30.9,30.31,SE,134,1.0,2.0,51,0.00,,,0.00,Wunderground v.1.15,2013-03-10 17:40:00,
2013-03-10 13:45:00,48.4,29.6,30.31,SE,138,2.0,2.0,48,0.00,,,0.00,Wunderground v.1.15,2013-03-10 17:45:00,
2013-03-10 13:50:00,48.8,30.0,30.31,SSE,167,1.0,1.0,48,0.00,,,0.00,Wunderground v.1.15,2013-03-10 17:50:00,
2013-03-10 13:55:00,48.9,29.0,30.31,SE,126,1.0,5.0,46,0.00,,,0.00,Wunderground v.1.15,2013-03-10 17:55:00,
2013-03-10 14:00:00,49.4,30.5,30.30,SSE,148,2.0,2.0,48,0.00,,,0.00,Wunderground v.1.15,2013-03-10 18:00:00,
2013-03-10 14:10:00,49.9,29.9,30.30,SSE,161,2.0,2.0,46,0.00,,,0.00,Wunderground v.1.15,2013-03-10 18:10:00,
2013-03-10 14:15:00,49.4,30.0,30.30,SSE,154,3.0,6.0,47,0.00,,,0.00,Wunderground v.1.15,2013-03-10 18:15:00,
2013-03-10 14:20:00,49.6,30.7,30.29,SSE,163,3.0,3.0,48,0.00,,,0.00,Wunderground v.1.15,2013-03-10 18:20:00,
2013-03-10 14:25:00,50.5,30.5,30.29,SE,140,2.0,3.0,46,0.00,,,0.00,Wunderground v.1.15,2013-03-10 18:25:00,
2013-03-10 14:30:00,50.8,31.3,30.28,SE,126,1.0,1.0,47,0.00,,,0.00,Wunderground v.1.15,2013-03-10 18:30:00,
2013-03-10 14:35:00,50.9,30.8,30.28,ESE,105,2.0,3.0,46,0.00,,,0.00,Wunderground v.1.15,2013-03-10 18:35:00,
2013-03-10 14:40:00,50.8,29.6,30.28,South,171,2.0,6.0,44,0.00,,,0.00,Wunderground v.1.15,2013-03-10 18:40:00,
2013-03-10 14:50:00,50.1,30.1,30.28,SE,128,4.0,4.0,46,0.00,,,0.00,Wunderground v.1.15,2013-03-10 18:50:00,
2013-03-10 14:55:00,50.5,31.5,30.27,South,179,3.0,4.0,48,0.00,,,0.00,Wunderground v.1.15,2013-03-10 18:55:00,
2013-03-10 15:00:00,51.1,30.5,30.28,South,182,1.0,1.0,45,0.00,,,0.00,Wunderground v.1.15,2013-03-10 19:00:00,
2013-03-10 15:05:00,51.4,30.2,30.27,SSE,161,2.0,2.0,44,0.00,,,0.00,Wunderground v.1.15,2013-03-10 19:05:00,
2013-03-10 15:10:00,51.0,30.4,30.27,SSE,148,3.0,3.0,45,0.00,,,0.00,Wunderground v.1.15,2013-03-10 19:10:00,
2013-03-10 15:15:00,51.1,30.5,30.27,SE,132,3.0,3.0,45,0.00,,,0.00,Wunderground v.1.15,2013-03-10 19:15:00,
2013-03-10 15:25:00,52.4,31.7,30.27,East,91,1.0,2.0,45,0.00,,,0.00,Wunderground v.1.15,2013-03-10 19:25:00,
2013-03-10 15:30:00,51.9,30.6,30.26,SE,144,2.0,2.0,44,0.00,,,0.00,Wunderground v.1.15,2013-03-10 19:30:00,
2013-03-10 15:35:00,51.6,29.8,30.26,South,172,3.0,4.0,43,0.00,,,0.00,Wunderground v.1.15,2013-03-10 19:35:00,
2013-03-10 15:40:00,51.6,31.5,30.26,SSE,165,2.0,2.0,46,0.00,,,0.00,Wunderground v.1.15,2013-03-10 19:40:00,
2013-03-10 15:45:00,51.7,30.5,30.26,SSE,167,2.0,2.0,44,0.00,,,0.00,Wunderground v.1.15,2013-03-10 19:45:00,
2013-03-10 15:50:00,52.0,31.3,30.26,SE,142,2.0,2.0,45,0.00,,,0.00,Wunderground v.1.15,2013-03-10 19:50:00,
2013-03-10 15:55:00,52.0,30.7,30.25,SE,130,2.0,2.0,44,0.00,,,0.00,Wunderground v.1.15,2013-03-10 19:55:00,
2013-03-10 16:05:00,51.7,30.5,30.26,East,94,2.0,4.0,44,0.00,,,0.00,Wunderground v.1.15,2013-03-10 20:05:00,
2013-03-10 16:10:00,51.9,30.6,30.25,ENE,78,2.0,5.0,44,0.00,,,0.00,Wunderground v.1.15,2013-03-10 20:10:00,
2013-03-10 16:15:00,51.5,30.8,30.25,South,173,3.0,8.0,45,0.00,,,0.00,Wunderground v.1.15,2013-03-10 20:15:00,
2013-03-10 16:20:00,50.9,29.7,30.25,East,80,2.0,5.0,44,0.00,,,0.00,Wunderground v.1.15,2013-03-10 20:20:00,
2013-03-10 16:25:00,50.3,29.7,30.25,SE,128,3.0,6.0,45,0.00,,,0.00,Wunderground v.1.15,2013-03-10 20:25:00,
2013-03-10 16:30:00,49.7,30.3,30.25,SE,136,4.0,7.0,47,0.00,,,0.00,Wunderground v.1.15,2013-03-10 20:30:00,
2013-03-10 16:40:00,49.5,30.1,30.24,East,91,3.0,3.0,47,0.00,,,0.00,Wunderground v.1.15,2013-03-10 20:40:00,
2013-03-10 16:45:00,49.5,30.1,30.24,ESE,119,2.0,3.0,47,0.00,,,0.00,Wunderground v.1.15,2013-03-10 20:45:00,
2013-03-10 16:50:00,49.7,30.3,30.24,South,180,2.0,5.0,47,0.00,,,0.00,Wunderground v.1.15,2013-03-10 20:50:00,
2013-03-10 16:55:00,49.5,30.6,30.24,South,175,2.0,5.0,48,0.00,,,0.00,Wunderground v.1.15,2013-03-10 20:55:00,
2013-03-10 17:00:00,49.3,30.4,30.24,SSE,148,2.0,2.0,48,0.00,,,0.00,Wunderground v.1.15,2013-03-10 21:00:00,
2013-03-10 17:10:00,49.0,30.1,30.24,South,179,4.0,7.0,48,0.00,,,0.00,Wunderground v.1.15,2013-03-10 21:10:00,
2013-03-10 17:15:00,48.6,30.3,30.24,SE,141,4.0,7.0,49,0.00,,,0.00,Wunderground v.1.15,2013-03-10 21:15:00,
2013-03-10 17:20:00,48.5,30.2,30.23,SSE,154,3.0,3.0,49,0.00,,,0.00,Wunderground v.1.15,2013-03-10 21:20:00,
2013-03-10 17:25:00,48.4,30.6,30.24,South,178,3.0,4.0,50,0.00,,,0.00,Wunderground v.1.15,2013-03-10 21:25:00,
2013-03-10 17:30:00,48.2,30.9,30.23,SE,138,2.0,2.0,51,0.00,,,0.00,Wunderground v.1.15,2013-03-10 21:30:00,
2013-03-10 17:35:00,48.0,30.2,30.23,South,180,3.0,9.0,50,0.00,,,0.00,Wunderground v.1.15,2013-03-10 21:35:00,
2013-03-10 17:40:00,47.9,30.1,30.23,South,174,4.0,5.0,50,0.00,,,0.00,Wunderground v.1.15,2013-03-10 21:40:00,
2013-03-10 17:50:00,47.5,30.3,30.23,South,180,3.0,3.0,51,0.00,,,0.00,Wunderground v.1.15,2013-03-10 21:50:00,
2013-03-10 17:55:00,47.4,30.2,30.23,ESE,119,3.0,5.0,51,0.00,,,0.00,Wunderground v.1.15,2013-03-10 21:55:00,
2013-03-10 18:00:00,47.4,30.6,30.23,ESE,102,3.0,3.0,52,0.00,,,0.00,Wunderground v.1.15,2013-03-10 22:00:00,
2013-03-10 18:05:00,47.1,30.4,30.23,South,174,3.0,3.0,52,0.00,,,0.00,Wunderground v.1.15,2013-03-10 22:05:00,
2013-03-10 18:10:00,46.8,30.6,30.23,South,174,3.0,3.0,53,0.00,,,0.00,Wunderground v.1.15,2013-03-10 22:10:00,
2013-03-10 18:20:00,46.4,30.6,30.23,SSE,148,2.0,6.0,54,0.00,,,0.00,Wunderground v.1.15,2013-03-10 22:20:00,
2013-03-10 18:25:00,46.4,30.6,30.23,SSE,167,4.0,7.0,54,0.00,,,0.00,Wunderground v.1.15,2013-03-10 22:25:00,
2013-03-10 18:30:00,46.4,30.6,30.24,South,177,5.0,10.0,54,0.00,,,0.00,Wunderground v.1.15,2013-03-10 22:30:00,
2013-03-10 18:35:00,46.3,30.5,30.24,South,179,4.0,10.0,54,0.00,,,0.00,Wunderground v.1.15,2013-03-10 22:35:00,
2013-03-10 18:40:00,46.0,30.7,30.23,ESE,111,4.0,10.0,55,0.00,,,0.00,Wunderground v.1.15,2013-03-10 22:40:00,
2013-03-10 18:45:00,46.0,30.7,30.23,SSE,157,5.0,10.0,55,0.00,,,0.00,Wunderground v.1.15,2013-03-10 22:45:00,
2013-03-10 18:50:00,45.9,31.1,30.24,South,173,4.0,4.0,56,0.00,,,0.00,Wunderground v.1.15,2013-03-10 22:50:00,
2013-03-10 19:00:00,45.9,31.1,30.25,South,184,4.0,7.0,56,0.00,,,0.00,Wunderground v.1.15,2013-03-10 23:00:00,
2013-03-10 19:05:00,45.7,30.9,30.24,South,176,4.0,7.0,56,0.00,,,0.00,Wunderground v.1.15,2013-03-10 23:05:00,
2013-03-10 19:10:00,45.8,31.0,30.24,SE,136,4.0,6.0,56,0.00,,,0.00,Wunderground v.1.15,2013-03-10 23:10:00,
2013-03-10 19:15:00,45.6,31.2,30.25,South,175,3.0,6.0,57,0.00,,,0.00,Wunderground v.1.15,2013-03-10 23:15:00,
2013-03-10 19:20:00,45.3,31.4,30.24,South,184,2.0,5.0,58,0.00,,,0.00,Wunderground v.1.15,2013-03-10 23:20:00,
2013-03-10 19:25:00,45.1,31.2,30.23,SE,136,2.0,5.0,58,0.00,,,0.00,Wunderground v.1.15,2013-03-10 23:25:00,
2013-03-10 19:35:00,44.9,31.4,30.22,SSE,168,2.0,8.0,59,0.00,,,0.00,Wunderground v.1.15,2013-03-10 23:35:00,
2013-03-10 19:40:00,44.9,31.0,30.23,ESE,108,3.0,3.0,58,0.00,,,0.00,Wunderground v.1.15,2013-03-10 23:40:00,
2013-03-10 19:45:00,44.9,31.4,30.23,SSE,159,3.0,3.0,59,0.00,,,0.00,Wunderground v.1.15,2013-03-10 23:45:00,
2013-03-10 19:50:00,44.9,31.4,30.23,East,98,3.0,3.0,59,0.00,,,0.00,Wunderground v.1.15,2013-03-10 23:50:00,
2013-03-10 19:55:00,44.9,31.8,30.22,ESE,105,2.0,5.0,60,0.00,,,0.00,Wunderground v.1.15,2013-03-10 23:55:00,
2013-03-10 20:05:00,44.9,31.8,30.22,SSE,165,3.0,7.0,60,0.00,,,0.00,Wunderground v.1.15,2013-03-11 00:05:00,
2013-03-10 20:10:00,44.8,31.8,30.22,SSE,150,3.0,3.0,60,0.00,,,0.00,Wunderground v.1.15,2013-03-11 00:10:00,
2013-03-10 20:15:00,44.7,31.7,30.22,SSE,157,4.0,4.0,60,0.00,,,0.00,Wunderground v.1.15,2013-03-11 00:15:00,
2013-03-10 20:20:00,44.6,31.6,30.23,SSE,155,4.0,9.0,60,0.00,,,0.00,Wunderground v.1.15,2013-03-11 00:20:00,
2013-03-10 20:25:00,44.6,31.6,30.23,SSE,155,4.0,9.0,60,0.00,,,0.00,Wunderground v.1.15,2013-03-11 00:25:00,
2013-03-10 20:30:00,44.5,31.9,30.23,East,88,4.0,5.0,61,0.00,,,0.00,Wunderground v.1.15,2013-03-11 00:30:00,
2013-03-10 20:35:00,44.4,31.8,30.22,South,172,4.0,5.0,61,0.00,,,0.00,Wunderground v.1.15,2013-03-11 00:35:00,
2013-03-10 20:45:00,44.1,31.5,30.23,SE,142,3.0,3.0,61,0.00,,,0.00,Wunderground v.1.15,2013-03-11 00:45:00,
2013-03-10 20:50:00,44.0,31.8,30.22,SE,140,3.0,3.0,62,0.00,,,0.00,Wunderground v.1.15,2013-03-11 00:50:00,
2013-03-10 20:55:00,43.8,32.0,30.23,East,90,3.0,5.0,63,0.00,,,0.00,Wunderground v.1.15,2013-03-11 00:55:00,
2013-03-10 21:00:00,43.8,32.4,30.23,SW,217,3.0,6.0,64,0.00,,,0.00,Wunderground v.1.15,2013-03-11 01:00:00,
2013-03-10 21:05:00,43.8,32.4,30.23,SE,144,3.0,6.0,64,0.00,,,0.00,Wunderground v.1.15,2013-03-11 01:05:00,
2013-03-10 21:10:00,43.7,32.7,30.23,SSE,155,3.0,3.0,65,0.00,,,0.00,Wunderground v.1.15,2013-03-11 01:10:00,
2013-03-10 21:20:00,43.6,32.6,30.24,SSE,167,3.0,3.0,65,0.00,,,0.00,Wunderground v.1.15,2013-03-11 01:20:00,
2013-03-10 21:25:00,43.6,32.6,30.23,South,172,3.0,3.0,65,0.00,,,0.00,Wunderground v.1.15,2013-03-11 01:25:00,
2013-03-10 21:30:00,43.5,32.9,30.22,East,96,2.0,5.0,66,0.00,,,0.00,Wunderground v.1.15,2013-03-11 01:30:00,
2013-03-10 21:35:00,43.5,32.9,30.23,South,169,3.0,5.0,66,0.00,,,0.00,Wunderground v.1.15,2013-03-11 01:35:00,
2013-03-10 21:40:00,43.4,33.2,30.22,SSE,160,2.0,2.0,67,0.00,,,0.00,Wunderground v.1.15,2013-03-11 01:40:00,
2013-03-10 21:45:00,43.1,32.9,30.22,SE,137,1.0,2.0,67,0.00,,,0.00,Wunderground v.1.15,2013-03-11 01:45:00,
2013-03-10 21:55:00,42.9,33.1,30.22,SE,130,3.0,7.0,68,0.00,,,0.00,Wunderground v.1.15,2013-03-11 01:55:00,
2013-03-10 22:00:00,42.7,32.9,30.21,South,169,3.0,3.0,68,0.00,,,0.00,Wunderground v.1.15,2013-03-11 02:00:00,
2013-03-10 22:05:00,42.6,33.1,30.21,ENE,69,2.0,3.0,69,0.00,,,0.00,Wunderground v.1.15,2013-03-11 02:05:00,
2013-03-10 22:10:00,42.5,33.0,30.22,SSE,150,1.0,1.0,69,0.00,,,0.00,Wunderground v.1.15,2013-03-11 02:10:00,
2013-03-10 22:15:00,42.5,33.0,30.23,SE,127,1.0,1.0,69,0.00,,,0.00,Wunderground v.1.15,2013-03-11 02:15:00,
2013-03-10 22:25:00,42.3,33.2,30.23,SSE,150,1.0,1.0,70,0.00,,,0.00,Wunderground v.1.15,2013-03-11 02:25:00,
2013-03-10 22:30:00,42.2,33.1,30.23,East,88,1.0,1.0,70,0.00,,,0.00,Wunderground v.1.15,2013-03-11 02:30:00,
2013-03-10 22:35:00,42.1,33.4,30.23,SSE,159,1.0,1.0,71,0.00,,,0.00,Wunderground v.1.15,2013-03-11 02:35:00,
2013-03-10 22:40:00,41.8,33.1,30.23,SSE,152,1.0,1.0,71,0.00,,,0.00,Wunderground v.1.15,2013-03-11 02:40:00,
2013-03-10 22:45:00,41.6,32.9,30.23,SSE,152,0.0,1.0,71,0.00,,,0.00,Wunderground v.1.15,2013-03-11 02:45:00,
2013-03-10 22:50:00,41.3,33.0,30.23,East,93,0.0,0.0,72,0.00,,,0.00,Wunderground v.1.15,2013-03-11 02:50:00,
2013-03-10 23:00:00,40.8,32.8,30.24,SE,124,0.0,0.0,73,0.00,,,0.00,Wunderground v.1.15,2013-03-11 03:00:00,
2013-03-10 23:05:00,40.6,33.0,30.23,South,178,1.0,2.0,74,0.00,,,0.00,Wunderground v.1.15,2013-03-11 03:05:00,
2013-03-10 23:10:00,40.4,33.1,30.23,SSE,153,1.0,1.0,75,0.00,,,0.00,Wunderground v.1.15,2013-03-11 03:10:00,
2013-03-10 23:15:00,40.2,32.9,30.23,SE,130,0.0,1.0,75,0.00,,,0.00,Wunderground v.1.15,2013-03-11 03:15:00,
2013-03-10 23:20:00,39.9,32.9,30.23,ESE,106,0.0,0.0,76,0.00,,,0.00,Wunderground v.1.15,2013-03-11 03:20:00,
2013-03-10 23:25:00,39.7,33.1,30.24,SSE,157,1.0,4.0,77,0.00,,,0.00,Wunderground v.1.15,2013-03-11 03:25:00,
2013-03-10 23:35:00,39.6,33.0,30.24,SSE,152,1.0,1.0,77,0.00,,,0.00,Wunderground v.1.15,2013-03-11 03:35:00,
2013-03-10 23:40:00,39.4,32.8,30.24,SE,135,0.0,0.0,77,0.00,,,0.00,Wunderground v.1.15,2013-03-11 03:40:00,
2013-03-10 23:45:00,39.3,33.0,30.24,ENE,76,0.0,0.0,78,0.00,,,0.00,Wunderground v.1.15,2013-03-11 03:45:00,
2013-03-10 23:50:00,39.1,32.8,30.23,SE,142,0.0,0.0,78,0.00,,,0.00,Wunderground v.1.15,2013-03-11 03:50:00,
2013-03-10 23:55:00,38.8,32.8,30.24,SE,134,1.0,1.0,79,0.00,,,0.00,Wunderground v.1.15,2013-03-11 03:55:00,